Overview Statistics Trail Chart Weather Telemetry Raw packets
 

This is the latest recevied weather packets stored in our database for station/object W7TRD. If no packets are shown the sender has not sent any weather packets the latest 10 day(s).

<< 60 61 62 63 64 65 66 >>
Time Temp. Humidity Pressure Rain* Wind** Luminosity Snow
1788202553 23.33° C 56% 1011 hPa 0 mm - 641 W/m² -
1788202249 23.89° C 58% 1010.9 hPa 0 mm - 631 W/m² -
1788201948 23.89° C 59% 1011.1 hPa 0 mm - 622 W/m² -
1788201644 21.67° C 61% 1011.2 hPa 0 mm - 612 W/m² -
1788201343 21.67° C 59% 1011.1 hPa 0 mm - 607 W/m² -
1788201037 22.22° C 58% 1011.3 hPa 0 mm - 600 W/m² -
1788200737 22.22° C 59% 1011.2 hPa 0 mm - 591 W/m² -
1788200433 22.22° C 60% 1011.4 hPa 0 mm - 581 W/m² -
1788200133 21.67° C 60% 1011.5 hPa 0 mm - 574 W/m² -
1788199832 22.78° C 60% 1011.4 hPa 0 mm - 566 W/m² -
1788199527 21.67° C 61% 1011.9 hPa 0 mm - 555 W/m² -
1788199222 21.67° C 61% 1011.7 hPa 0 mm - 544 W/m² -
1788198918 21.67° C 62% 1011.7 hPa 0 mm - 536 W/m² -
1788198615 20.56° C 64% 1011.7 hPa 0 mm - 527 W/m² -
1788198309 20° C 66% 1011.8 hPa 0 mm - 486 W/m² -
1788198009 20° C 65% 1011.7 hPa 0 mm - 505 W/m² -
1788197707 19.44° C 67% 1011.7 hPa 0 mm - 495 W/m² -
1788197404 19.44° C 69% 1011.9 hPa 0 mm - 487 W/m² -
1788197099 18.89° C 68% 1012 hPa 0 mm - 475 W/m² -
1788196794 18.89° C 68% 1012.1 hPa 0 mm - 464 W/m² -
1788196489 20° C 66% 1012.2 hPa 0 mm - 454 W/m² -
1788196186 19.44° C 66% 1012.3 hPa 0 mm - 441 W/m² -
1788195882 18.89° C 69% 1012.1 hPa 0 mm - 431 W/m² -
1788195579 18.89° C 68% 1012 hPa 0 mm - 421 W/m² -
1788195274 18.33° C 70% 1012.1 hPa 0 mm - 411 W/m² -

* Rain latest hour (hover to see other rain measurements)
** Current wind speed in m/s (hover to see current wind gust speed)